Location: Grasslands National Park East Block
(49.0708°N, 106.5295°W)
Time: 10:13:43
(UTC-06:00)

Transit 4A - All Passes

Search period start: 17 September 2019 00:00
Search period end: 27 September 2019 00:00
Orbit: 865 x 980 km, 66.8° (Epoch: 16 September)

Date Brightness Start Highest point End Pass type
(mag) Time Alt. Az. Time Alt. Az. Time Alt. Az.
17 Sep - 12:13:51 10° SSE 12:19:00 26° ESE 12:24:07 10° NE daylight
17 Sep - 13:58:30 10° SW 14:04:53 73° NW 14:11:13 10° NNE daylight
17 Sep - 15:47:16 10° W 15:52:21 24° NNW 15:57:23 10° NNE daylight
17 Sep - 17:37:37 10° NW 17:41:07 15° N 17:44:35 10° NNE daylight
17 Sep - 19:25:16 10° NNW 19:29:59 22° NNE 19:34:35 10° ENE daylight
17 Sep - 21:11:29 10° NNW 21:17:37 63° NE 21:23:31 10° SE visible
17 Sep - 22:58:27 10° NW 23:03:34 29° WSW 23:08:33 10° SSW visible
18 Sep - 12:22:22 10° S 12:28:08 37° ESE 12:33:52 10° NE daylight
18 Sep - 14:08:05 10° SW 14:14:21 55° NW 14:20:33 10° NNE daylight
18 Sep - 15:57:29 10° WNW 16:02:09 21° NNW 16:06:44 10° NNE daylight
18 Sep - 17:47:32 10° NNW 17:51:03 15° N 17:54:32 10° NE daylight
18 Sep - 19:34:37 10° NNW 19:39:44 26° NNE 19:44:43 10° E visible
18 Sep - 21:20:50 10° NW 21:27:01 84° NE 21:32:59 10° SE visible
18 Sep - 23:08:22 10° WNW 23:12:37 20° WSW 23:16:47 10° SSW visible
19 Sep - 12:31:10 10° S 12:37:19 51° ESE 12:43:25 10° NE daylight
19 Sep - 14:17:51 10° WSW 14:23:52 42° NW 14:29:51 10° NNE daylight
19 Sep - 16:07:46 10° WNW 16:11:59 18° NNW 16:16:09 10° NNE daylight
19 Sep - 17:57:16 10° NNW 18:00:58 16° N 18:04:38 10° NE daylight
19 Sep - 19:43:56 10° NNW 19:49:25 32° NE 19:54:45 10° E visible
19 Sep - 21:30:14 10° NW 21:36:21 72° WSW 21:42:15 10° SSE visible
19 Sep - 23:18:49 10° WNW 23:21:35 13° W 23:24:19 10° SW visible
20 Sep - 10:58:02 10° SE 11:01:15 14° ESE 11:04:27 10° ENE daylight
20 Sep - 12:40:13 10° SSW 12:46:35 71° ESE 12:52:52 10° NE daylight
20 Sep - 14:27:46 10° W 14:33:29 34° NW 14:39:08 10° NNE daylight
20 Sep - 16:18:02 10° NW 16:21:52 16° NNW 16:25:39 10° NNE daylight
20 Sep - 18:06:50 10° NNW 18:10:52 17° NNE 18:14:50 10° ENE daylight
20 Sep - 19:53:14 10° NNW 19:59:03 40° NE 20:04:39 10° ESE visible
20 Sep - 21:39:42 10° NW 21:45:36 51° WSW 21:51:18 10° S visible
21 Sep - 11:05:40 10° SSE 11:10:15 21° ESE 11:14:49 10° ENE daylight
21 Sep - 12:49:30 10° SW 12:55:55 86° WNW 13:02:16 10° NE daylight
21 Sep - 14:37:49 10° W 14:43:10 27° NNW 14:48:26 10° NNE daylight
21 Sep - 16:28:13 10° NW 16:31:47 15° N 16:35:19 10° NNE daylight
21 Sep - 18:16:18 10° NNW 18:20:43 20° NNE 18:25:03 10° ENE daylight
21 Sep - 20:02:33 10° NNW 20:08:35 52° NE 20:14:23 10° ESE visible
21 Sep - 21:49:16 10° NW 21:54:46 36° WSW 22:00:05 10° S visible
22 Sep - 11:13:55 10° SSE 11:19:19 30° ESE 11:24:41 10° NE daylight
22 Sep - 12:58:58 10° SW 13:05:20 65° NW 13:11:36 10° NNE daylight
22 Sep - 14:47:59 10° WNW 14:52:54 23° NNW 14:57:45 10° NNE daylight
22 Sep - 16:38:16 10° NW 16:41:43 15° N 16:45:08 10° NE daylight
22 Sep - 18:25:41 10° NNW 18:30:31 23° NNE 18:35:14 10° E daylight
22 Sep - 20:11:53 10° NNW 20:18:02 70° NE 20:23:58 10° SE visible
22 Sep - 21:59:01 10° NW 22:03:51 25° WSW 22:08:35 10° SSW visible
23 Sep - 11:22:32 10° S 11:28:28 42° ESE 11:34:20 10° NE daylight
23 Sep - 13:08:37 10° WSW 13:14:48 50° NW 13:20:55 10° NNE daylight
23 Sep - 14:58:14 10° WNW 15:02:43 20° NNW 15:07:08 10° NNE daylight
23 Sep - 16:48:07 10° NNW 16:51:39 15° N 16:55:09 10° NE daylight
23 Sep - 18:35:01 10° NNW 18:40:15 28° NNE 18:45:20 10° E daylight
23 Sep - 20:21:15 10° NW 20:27:25 87° SW 20:33:21 10° SSE visible
23 Sep - 22:09:04 10° WNW 22:12:52 17° WSW 22:16:37 10° SW visible
24 Sep - 09:51:09 10° ESE 09:52:34 11° E 09:54:00 10° E daylight
24 Sep - 11:31:27 10° SSW 11:37:41 58° ESE 11:43:51 10° NE daylight
24 Sep - 13:18:26 10° WSW 13:24:22 39° NW 13:30:13 10° NNE daylight
24 Sep - 15:08:32 10° NW 15:12:34 17° NNW 15:16:34 10° NNE daylight
24 Sep - 16:57:47 10° NNW 17:01:34 16° NNE 17:05:18 10° NE daylight
24 Sep - 18:44:19 10° NNW 18:49:55 34° NE 18:55:20 10° ESE daylight
24 Sep - 20:30:41 10° NW 20:36:42 64° WSW 20:42:32 10° SSE visible
24 Sep - 22:20:03 10° W 22:21:49 11° W 22:23:34 10° WSW visible
25 Sep - 09:57:43 10° SE 10:01:31 17° ESE 10:05:17 10° ENE daylight
25 Sep - 11:40:35 10° SSW 11:46:58 79° ESE 11:53:17 10° NE daylight
25 Sep - 13:28:25 10° W 13:34:00 31° NW 13:39:30 10° NNE daylight
25 Sep - 15:18:46 10° NW 15:22:28 16° N 15:26:07 10° NNE daylight
25 Sep - 17:07:19 10° NNW 17:11:27 18° NNE 17:15:31 10° ENE daylight
25 Sep - 18:53:38 10° NNW 18:59:30 44° NE 19:05:10 10° ESE daylight
25 Sep - 20:40:10 10° NW 20:45:56 45° WSW 20:51:30 10° S visible
26 Sep - 10:05:37 10° SSE 10:10:32 24° ESE 10:15:26 10° ENE daylight
26 Sep - 11:49:56 10° SW 11:56:20 78° NW 12:02:39 10° NE daylight
26 Sep - 13:38:31 10° W 13:43:42 25° NNW 13:48:48 10° NNE daylight
26 Sep - 15:28:54 10° NW 15:32:23 15° N 15:35:50 10° NNE daylight
26 Sep - 17:16:44 10° NNW 17:21:17 21° NNE 17:25:44 10° ENE daylight
26 Sep - 19:02:57 10° NNW 19:09:00 58° NE 19:14:52 10° SE daylight
26 Sep - 20:49:48 10° NW 20:55:04 32° WSW 21:00:11 10° S visible
